Regional Weather Roundup
Issued by NWS

Home | Current Version | Previous Version | Graphics & Text | Print | Product List | Glossary On
Versions: 1 2 3 4 5 6 7 8 9 10 11 12 13 14 15 16 17 18 19 20 21 22 23 24 25 26 27 28 29 30 31 32 33 34 35 36 37 38 39 40 41 42 43 44 45 46 47 48 49 50
000
ASUS43 KLMK 010902
RWRKY
KENTUCKY REGIONAL WEATHER ROUNDUP
NATIONAL WEATHER SERVICE LOUISVILLE KY
500 AM EDT SAT AUG 01 2015

NOTE "FAIR" INDICATES FEW OR NO CLOUDS BELOW 12,000 FEET
WITH NO SIGNIFICANT WEATHER AND/OR OBSTRUCTIONS TO VISIBILITY.

KYZ001>023-026-027-061>063-070>075-011000-
WESTERN AND SOUTH CENTRAL KENTUCKY

CITY           SKY/WX    TMP DP  RH WIND       PRES   REMARKS
PADUCAH        CLEAR     68  66  93 CALM      30.01F
HENDERSON      CLEAR     68  64  88 CALM      30.00R
OWENSBORO      CLEAR     70  68  93 CALM      30.00F
HOPKINSVILLE   NOT AVBL
BOWLING GREEN  CLEAR     68  64  87 CALM      30.01F
GLASGOW        NOT AVBL
$$

KYZ024-025-028>034-038-045-046-053-011000-
NORTH CENTRAL KENTUCKY

CITY           SKY/WX    TMP DP  RH WIND       PRES   REMARKS
LOUISVILLE/SDF PTCLDY    74  65  73 VRB3      29.99S
LOUISVILLE/LOU PTCLDY    71  65  81 CALM      30.00S
FORT KNOX      PTCLDY    69  65  89 NW6       29.98F
$$

KYZ035>037-039>044-047>052-055>060-089>105-011000-
NORTHEAST KENTUCKY

CITY           SKY/WX    TMP DP  RH WIND       PRES   REMARKS
LEXINGTON      CLEAR     67  61  81 SW3       30.00F
COVINGTON      CLEAR     64  60  87 W5        29.99S
FRANKFORT      CLEAR     64  61  90 NW3       29.99S
$$

KYZ054-064>069-076>088-106>120-011000-
SOUTHEAST KENTUCKY

CITY           SKY/WX    TMP DP  RH WIND       PRES   REMARKS
JACKSON        CLEAR     64  61  90 CALM      30.02F
LONDON         CLEAR     63  59  87 CALM      30.04S
SOMERSET       NOT AVBL
MIDDLESBORO    CLEAR     60  59  98 CALM      30.06F
MONTICELLO     SUNNY     61  61 100 CALM      30.06F
$$




USA.gov is the U.S. government's official web portal to all federal, state and local government web resources and services.